Weather Roundup
Issued by NWS Chicago, IL

Home | Current Version | Previous Version | Graphics & Text | Print | Product List | Glossary On
Versions: 1 2 3 4 5 6 7 8 9 10 11 12 13 14 15 16 17 18 19 20 21 22 23 24 25 26 27 28 29 30 31 32 33 34 35 36 37 38 39 40 41 42 43 44 45 46 47 48 49 50
000
NZUS59 KLOT 300409
HRRLOT

CHICAGO AREA WEATHER ROUNDUP
NATIONAL WEATHER SERVICE CHICAGO/ROMEOVILLE IL
1100 PM CDT FRI JUL 29 2016

NOTE: "FAIR" INDICATES FEW OR NO CLOUDS BELOW 12,000 FEET WITH NO
SIGNIFICANT WEATHER AND/OR OBSTRUCTIONS TO VISIBILITY.

* THESE STATIONS ARE NOT UNDER NWS QUALITY CONTROL. THEY ALSO MAY NOT
  REPORT WEATHER SUCH AS PRECIPITATION OR FOG.

ILZ005-006-012>014-019>023-300500-
NORTHEAST ILLINOIS

CITY           SKY/WX    TMP DP  RH WIND       PRES   REMARKS
OHARE          CLOUDY    70  67  90 N7        29.95S
MIDWAY         CLOUDY    74  65  73 NE8       29.94S
AURORA         PTCLDY    69  67  93 NE7       29.95F
LANSING*       MOCLDY    69  66  90 CALM      29.94S
JOLIET*        PTCLDY    71  69  93 N3        29.94S
WAUKEGAN       MOCLDY    70  67  90 NE5       29.96S
DUPAGE AIRPORT CLOUDY    69  66  90 N6        29.95S
WHEELING       CLOUDY    70  66  87 N6        29.97S
KANKAKEE*      CLEAR     68  66  93 NE5       29.93S
MORRIS*        CLEAR     68  67  96 CALM      29.93S FOG
LEWIS AIRPORT* MOCLDY    70  66  88 NE6       29.95S
NORTHERLY ISL    N/A     73  68  84 NE13        N/A
$$

WIZ051-052-058>065-066-070>072-300500-
SOUTHEAST WISCONSIN

CITY           SKY/WX    TMP DP  RH WIND       PRES   REMARKS
MILWAUKEE      CLOUDY    70  65  84 N9        29.98F
KENOSHA*       CLOUDY    69  66  90 NE3       29.98S
RACINE*        CLOUDY    68  65  90 N7        29.99F
BURLINGTON     CLOUDY    66  64  93 CALM      29.98S
WAUKESHA       CLOUDY    64  61  88 CALM      30.00S
$$

INZ001>003-010>013-019-020-300500-
NORTHWEST INDIANA

CITY           SKY/WX    TMP DP  RH WIND       PRES   REMARKS
GARY*          MOCLDY    74  73  97 NE8       29.94S
MICHIGAN CITY* NOT AVBL
RENSSELAER*    NOT AVBL
VALPARAISO     CLEAR     67  66  97 NE3       29.94S
$$

LMZ740>746-300500-
SOUTHERN LAKE MICHIGAN

STATION/POSITION TIME  SKY/WX   TEMP WIND        PRES    VSBY
                                AIR  DIR/SP/G
                 (UTC)          (F)  (DEG/KT/KT) (MB)    (MI)
HARRISON CRIB    0300            75   60/ 16/ 18   N/A
BURNHAM HARBOR   0400            73   50/ 12/ 15   N/A
CALUMET HARBOR   0300                            1013.2F
BURNS HARBOR     0303            71   70/  8/ 11 1013.9F
MICHIGAN CITY    0300            71   50/ 10/ 10   N/A
$$

ABBREVIATIONS USED IN REMARKS
   TC - TEMPERATURE IN CELSIUS
  WCI - WIND CHILL INDEX
   HX - HEAT INDEX
  VSB - VISIBILITY
$$



USA.gov is the U.S. government's official web portal to all federal, state and local government web resources and services.